[[{"header":{"parameterUnit":"m.s-1","parameterCategory":1,"la1":30.2991,"la2":30.254,"lo1":-89.0895,"lo2":-89.0444,"dy":0.0017,"dx":0.0017,"nx":28,"ny":28,"refTime":"2024-07-12T21:00:00:Z","depth":0,"parameterNumber":2,"parameterNumberName":"U-component_of_WINDS"},"data":[0,0,0,0,0,0,0,0,0,0,0,0,0,0,0,0,0,0,0,0,0,0,0,0,0,0,0,0,0,0,0,0,0,0,0,0,0,0,0,0,0,0,0,0,0,0,0,0,0,0,0,0,0,0,0,0,0,0,1.4569,1.4569,0,1.4602,1.4602,1.4603,1.458,1.4579,1.4578,1.4577,1.4614,1.4616,1.4617,0,0,0,0,0,0,0,0,0,0,0,0,0,1.4491,1.4493,1.4569,1.4569,1.457,1.4602,1.4602,1.4603,1.4581,1.4579,1.4578,1.4577,1.4613,1.4615,1.4618,0,0,0,0,0,0,0,0,0,0,0,0,0,1.4525,1.4493,1.4569,1.4563,1.4562,1.4602,1.4602,1.4603,1.4581,1.4579,1.4578,1.4576,1.4612,1.4615,1.4618,1.4666,0,0,1.4627,1.4628,0,0,0,0,0,0,0,0,1.4523,1.4528,1.4563,1.4563,1.4563,1.4585,1.4588,1.4624,1.4581,1.4574,1.4577,1.4576,1.4606,1.4609,1.4619,1.4668,1.467,1.4627,1.4629,1.463,1.4631,0,0,0,0,0,0,0,1.452,1.4526,1.4582,1.4564,1.4564,1.4559,1.4562,1.4595,1.4598,1.4574,1.4573,1.4577,1.4605,1.4616,1.4619,1.467,1.4627,1.4629,1.4631,1.4632,1.4764,1.4765,0,0,0,0,0,0,1.4518,1.4524,1.4581,1.4583,1.4539,1.4562,1.4565,1.458,1.4598,1.4599,1.4578,1.4576,1.4612,1.4616,1.4621,1.468,1.463,1.4633,1.4634,1.4762,1.4764,1.4766,0,0,0,0,0,0,1.4517,1.4523,1.458,1.4553,1.456,1.4565,1.4581,1.4581,1.4592,1.46,1.4601,1.4588,1.4611,1.4616,1.4656,1.4681,1.4634,1.4637,1.476,1.4763,1.4765,1.4798,0,0,0,0,0,0,1.4514,1.4523,1.454,1.4554,1.4562,1.4613,1.4583,1.4583,1.4596,1.4594,1.461,1.4611,1.461,1.4651,1.4658,1.4684,1.4639,1.4758,1.4761,1.4764,1.4795,1.4801,1.4807,0,0,0,0,0,1.4512,1.4548,1.4541,1.4548,1.4583,1.4614,1.4619,1.4616,1.4598,1.4617,1.4623,1.4611,1.4677,1.4656,1.4663,1.469,1.4756,1.476,1.4764,1.4792,1.48,1.4807,0,0,0,0,0,0,1.4538,1.455,1.4542,1.4584,1.4598,1.4611,1.4633,1.4624,1.4645,1.4641,1.4638,1.4642,1.4683,1.469,1.4666,1.4739,1.4714,1.472,1.4732,1.474,1.4747,1.4744,1.4641,0,0,0,0,0,1.4549,1.4572,1.4581,1.4618,1.4625,1.4628,1.4642,1.4638,1.4653,1.4659,1.4668,1.4684,1.4709,1.4725,1.4748,1.4796,1.48,1.4818,1.4825,1.483,1.4835,1.4863,1.4871,1.4779,1.4779,1.4779,0,0,1.4571,1.458,1.4595,1.4623,1.4634,1.466,1.4633,1.4661,1.4681,1.4664,1.4701,1.4709,1.4727,1.4771,1.4791,1.4778,1.4861,1.4835,1.4839,1.4841,1.4868,1.4877,1.4884,1.4782,1.4781,1.4781,0,0,1.4624,1.4633,1.4665,1.4677,1.4693,1.4695,1.4703,1.4717,1.4721,1.4759,1.4748,1.4772,1.4813,1.4827,1.4839,1.4901,1.4892,1.4909,1.4942,1.4969,1.4976,1.4983,1.5006,1.5014,1.4914,1.4914,1.4914,0,1.465,1.4687,1.4683,1.4712,1.4726,1.4712,1.4745,1.4757,1.478,1.4791,1.4776,1.483,1.4841,1.4889,1.4904,1.4914,1.4925,1.4907,1.4975,1.4982,1.4988,1.501,1.5019,1.4916,1.4916,1.4916,1.4915,0,1.4719,1.4745,1.4769,1.4792,1.4808,1.484,1.4841,1.4859,1.4855,1.4859,1.4899,1.4912,1.4938,1.4949,1.4945,1.4998,1.499,1.4975,1.495,1.4999,1.502,1.5028,1.4919,1.4918,1.4918,1.4917,0,0,1.4789,1.481,1.4819,1.483,1.4849,1.487,1.4901,1.4926,1.4942,1.496,1.4987,1.5024,1.5012,1.5026,1.5024,1.5048,1.5098,1.5031,1.5032,1.5044,1.5159,1.517,1.5179,1.5092,1.5093,1.5095,1.5158,0,1.4844,1.4898,1.4896,1.4947,1.4973,1.4961,1.4989,1.5004,1.501,1.5033,1.5039,1.5066,1.5047,1.5056,1.5079,1.5087,1.5121,1.5082,1.5119,1.512,1.5115,1.519,1.5201,1.526,1.5166,1.5167,1.5168,0,1.4916,1.4936,1.4989,1.5006,1.5016,1.5041,1.5065,1.5087,1.5106,1.5108,1.5125,1.512,1.5154,1.5128,1.5176,1.5149,1.5164,1.5171,1.5173,1.5177,1.5147,1.5197,1.5278,1.5288,1.5181,1.518,1.5179,0,1.4963,1.5003,1.5041,1.5051,1.5071,1.5089,1.5098,1.5115,1.5131,1.5152,1.5163,1.5189,1.5203,1.5224,1.5226,1.5207,1.5275,1.5249,1.528,1.528,1.5295,1.5294,1.5381,1.5303,1.5303,1.5303,1.5303,0,1.5025,1.5059,1.5063,1.5086,1.5124,1.5123,1.5161,1.5169,1.5184,1.521,1.5201,1.5226,1.5228,1.5254,1.5256,1.5296,1.5303,1.5307,1.5307,1.5308,1.5308,1.5318,1.5314,1.5305,1.5305,1.5304,1.5304,0,1.5084,1.5088,1.5128,1.5144,1.5149,1.5177,1.5191,1.5215,1.522,1.5253,1.5261,1.5269,1.53,1.5304,1.534,1.5342,1.5391,1.5386,1.5384,1.5384,1.5415,1.5413,1.5512,1.5526,1.5439,1.544,1.544,0,1.5124,1.515,1.5169,1.5185,1.5196,1.5222,1.5239,1.5239,1.5257,1.5281,1.5302,1.5331,1.5355,1.5405,1.5415,1.5443,1.544,1.5473,1.5444,1.5445,1.5442,1.544,1.5444,1.5479,1.5479,1.548,1.5481,0,1.5195,1.5196,1.522,1.5245,1.5265,1.5285,1.5304,1.5318,1.5321,1.5342,1.5373,1.5391,1.5428,1.5458,1.5486,1.5498,1.5491,1.549,1.5499,1.55,1.5498,1.5501,1.5401,1.5488,1.5487,1.5486,1.5486,1.5486,1.5246,1.5269,1.5287,1.5314,1.5329,1.5347,1.537,1.5379,1.5404,1.5434,1.5433,1.5467,1.5487,1.5524,1.5537,1.5566,1.5555,1.5567,1.5571,1.5574,1.5578,1.5494,1.5571,1.557,1.557,1.557,1.557,0,1.5318,1.5329,1.5354,1.5381,1.5403,1.5394,1.5415,1.5435,1.5465,1.5484,1.5507,1.5544,1.5574,1.5587,1.5617,1.5637,1.5635,1.5645,1.5644,1.5647,1.5585,1.5575,1.5646,1.5646,1.5646,1.5646,1.5646,1.5646,1.5358,1.5397,1.54,1.5447,1.5458,1.5492,1.5505,1.5522,1.5538,1.5579,1.5603,1.5612,1.5629,1.566,1.5688,1.5691,1.5703,1.5715,1.5717,1.5659,1.5651,1.5644,1.5634,1.5717,1.5717,1.5777,1.5778,1.5778]},{"header":{"parameterUnit":"m.s-1","parameterCategory":1,"la1":30.2991,"la2":30.254,"lo1":-89.0895,"lo2":-89.0444,"dy":0.0017,"dx":0.0017,"nx":28,"ny":28,"refTime":"2024-07-12T21:00:00:Z","depth":0,"parameterNumber":3,"parameterNumberName":"V-component_of_WINDS"},"data":[0,0,0,0,0,0,0,0,0,0,0,0,0,0,0,0,0,0,0,0,0,0,0,0,0,0,0,0,0,0,0,0,0,0,0,0,0,0,0,0,0,0,0,0,0,0,0,0,0,0,0,0,0,0,0,0,0,0,-0.1983,-0.1983,0,-0.1998,-0.1998,-0.1998,-0.2012,-0.2012,-0.2012,-0.2012,-0.2028,-0.2028,-0.2028,0,0,0,0,0,0,0,0,0,0,0,0,0,-0.1966,-0.1966,-0.1983,-0.1983,-0.1983,-0.1998,-0.1998,-0.1998,-0.2012,-0.2012,-0.2012,-0.2012,-0.2028,-0.2028,-0.2028,0,0,0,0,0,0,0,0,0,0,0,0,0,-0.1976,-0.1966,-0.1983,-0.1991,-0.1992,-0.1998,-0.1998,-0.1998,-0.2012,-0.2012,-0.2012,-0.2012,-0.2028,-0.2028,-0.2028,-0.2026,0,0,-0.2029,-0.203,0,0,0,0,0,0,0,0,-0.1975,-0.1977,-0.199,-0.1991,-0.1992,-0.2003,-0.1998,-0.2007,-0.2012,-0.2004,-0.2012,-0.2013,-0.2019,-0.202,-0.2023,-0.2027,-0.2027,-0.203,-0.203,-0.203,-0.203,0,0,0,0,0,0,0,-0.1975,-0.1976,-0.1989,-0.199,-0.1991,-0.1995,-0.1997,-0.2,-0.201,-0.2005,-0.2006,-0.2008,-0.202,-0.2022,-0.2023,-0.2027,-0.203,-0.203,-0.203,-0.203,-0.2031,-0.2031,0,0,0,0,0,0,-0.1973,-0.1975,-0.1988,-0.1989,-0.1984,-0.1995,-0.1997,-0.1999,-0.201,-0.2012,-0.2007,-0.2008,-0.2022,-0.2023,-0.2024,-0.2022,-0.203,-0.203,-0.2031,-0.2031,-0.2031,-0.203,0,0,0,0,0,0,-0.1972,-0.1974,-0.1987,-0.1982,-0.1985,-0.1995,-0.1998,-0.1999,-0.2002,-0.2012,-0.2014,-0.2008,-0.2022,-0.2023,-0.2025,-0.2023,-0.203,-0.2031,-0.2031,-0.2031,-0.2031,-0.2018,0,0,0,0,0,0,-0.1972,-0.1973,-0.1972,-0.1982,-0.1985,-0.1989,-0.1997,-0.2,-0.2003,-0.2004,-0.2013,-0.2015,-0.2022,-0.2025,-0.2026,-0.2023,-0.2031,-0.2032,-0.2031,-0.2031,-0.2019,-0.2018,-0.2016,0,0,0,0,0,-0.1971,-0.1968,-0.1972,-0.1974,-0.1984,-0.1989,-0.199,-0.1998,-0.2002,-0.2002,-0.2008,-0.2015,-0.2023,-0.2025,-0.2026,-0.2024,-0.2032,-0.2031,-0.2031,-0.202,-0.2018,-0.2017,0,0,0,0,0,0,-0.1958,-0.197,-0.1974,-0.1975,-0.1981,-0.1991,-0.199,-0.1996,-0.2001,-0.2002,-0.2012,-0.2014,-0.2015,-0.202,-0.2022,-0.2022,-0.2028,-0.2028,-0.2019,-0.2018,-0.2017,-0.2015,-0.2031,0,0,0,0,0,-0.1955,-0.1957,-0.1968,-0.1967,-0.197,-0.198,-0.1982,-0.1988,-0.1994,-0.1997,-0.2003,-0.2009,-0.2014,-0.2016,-0.202,-0.202,-0.2022,-0.2019,-0.2018,-0.2017,-0.2016,-0.2017,-0.2016,-0.2029,-0.2029,-0.2029,0,0,-0.1949,-0.1956,-0.1957,-0.1965,-0.197,-0.1973,-0.1981,-0.1984,-0.1986,-0.1997,-0.2,-0.2005,-0.2012,-0.2013,-0.2014,-0.2017,-0.2013,-0.2016,-0.2015,-0.2015,-0.2016,-0.2015,-0.2014,-0.2028,-0.2029,-0.2029,0,0,-0.194,-0.1945,-0.1945,-0.195,-0.1958,-0.1964,-0.1965,-0.1974,-0.1978,-0.1981,-0.1989,-0.1992,-0.1998,-0.2004,-0.2007,-0.2,-0.2006,-0.2001,-0.1994,-0.1995,-0.1994,-0.1993,-0.1991,-0.199,-0.2001,-0.2001,-0.2001,0,-0.1931,-0.1936,-0.1945,-0.1947,-0.195,-0.196,-0.1961,-0.1965,-0.1974,-0.1976,-0.198,-0.1988,-0.1994,-0.1997,-0.1995,-0.1997,-0.1998,-0.2,-0.1993,-0.1992,-0.1992,-0.199,-0.1989,-0.2,-0.2,-0.2,-0.2,0,-0.1925,-0.1928,-0.1928,-0.1936,-0.1939,-0.194,-0.195,-0.1952,-0.1958,-0.1964,-0.1967,-0.1974,-0.198,-0.1981,-0.1987,-0.1985,-0.1986,-0.1991,-0.1997,-0.199,-0.1988,-0.1987,-0.1999,-0.1999,-0.1999,-0.2,0,0,-0.1908,-0.1921,-0.1921,-0.1925,-0.1935,-0.1937,-0.1939,-0.1945,-0.1947,-0.1953,-0.1955,-0.196,-0.1965,-0.1969,-0.1975,-0.1976,-0.197,-0.1981,-0.1981,-0.1979,-0.1969,-0.1965,-0.1964,-0.1974,-0.1974,-0.1974,-0.1968,0,-0.19,-0.1904,-0.1913,-0.1914,-0.1917,-0.1927,-0.1929,-0.1935,-0.194,-0.1944,-0.1951,-0.1954,-0.196,-0.1963,-0.1964,-0.1971,-0.1968,-0.1971,-0.1976,-0.1976,-0.1974,-0.1963,-0.1959,-0.1953,-0.1968,-0.1967,-0.1967,0,-0.1892,-0.1897,-0.1899,-0.1909,-0.191,-0.1912,-0.1918,-0.1921,-0.1929,-0.1933,-0.1937,-0.1944,-0.1947,-0.1952,-0.1957,-0.1958,-0.1961,-0.1965,-0.1965,-0.1966,-0.1971,-0.1964,-0.1952,-0.1951,-0.1966,-0.1966,-0.1967,0,-0.188,-0.1887,-0.1889,-0.1893,-0.1904,-0.1905,-0.1909,-0.1917,-0.192,-0.1926,-0.1928,-0.1934,-0.1937,-0.1941,-0.195,-0.1953,-0.1953,-0.1959,-0.1957,-0.1957,-0.1956,-0.1956,-0.1944,-0.1958,-0.1958,-0.1958,-0.1958,0,-0.1871,-0.1871,-0.1884,-0.1885,-0.1887,-0.1896,-0.1897,-0.1903,-0.1909,-0.1912,-0.1921,-0.1923,-0.1934,-0.1938,-0.1945,-0.1947,-0.1948,-0.1952,-0.1954,-0.1951,-0.1951,-0.1953,-0.1954,-0.1958,-0.1958,-0.1958,-0.1958,0,-0.1857,-0.1865,-0.1868,-0.1879,-0.1882,-0.1882,-0.1891,-0.1893,-0.1899,-0.1903,-0.1904,-0.1914,-0.1919,-0.1928,-0.1935,-0.194,-0.1941,-0.1944,-0.1938,-0.194,-0.1937,-0.1937,-0.1926,-0.1925,-0.1939,-0.1939,-0.1939,0,-0.1851,-0.1852,-0.1862,-0.1865,-0.1869,-0.1873,-0.1876,-0.1886,-0.1889,-0.1897,-0.1898,-0.1904,-0.1909,-0.1916,-0.1924,-0.193,-0.1933,-0.1929,-0.1934,-0.1932,-0.1933,-0.1933,-0.1934,-0.1928,-0.1928,-0.1928,-0.1927,0,-0.1839,-0.1843,-0.1847,-0.1854,-0.1857,-0.1863,-0.1868,-0.187,-0.1881,-0.1884,-0.1889,-0.1893,-0.19,-0.1906,-0.1913,-0.1918,-0.1925,-0.1926,-0.1926,-0.1923,-0.192,-0.1922,-0.1935,-0.1926,-0.1926,-0.1926,-0.1926,-0.1926,-0.1829,-0.183,-0.1838,-0.1843,-0.1848,-0.1853,-0.1855,-0.1862,-0.1867,-0.1874,-0.1879,-0.1884,-0.1891,-0.1901,-0.1906,-0.191,-0.1913,-0.1913,-0.1913,-0.1913,-0.1912,-0.1919,-0.1911,-0.1911,-0.1912,-0.1912,-0.1912,0,-0.1818,-0.1823,-0.1827,-0.1835,-0.1839,-0.1845,-0.1851,-0.1854,-0.1858,-0.1865,-0.187,-0.1876,-0.1881,-0.189,-0.1896,-0.1898,-0.1901,-0.1899,-0.1899,-0.19,-0.1908,-0.1908,-0.1896,-0.1896,-0.1896,-0.1896,-0.1896,-0.1896,-0.1812,-0.1815,-0.182,-0.1825,-0.1831,-0.1836,-0.1839,-0.1844,-0.1849,-0.1855,-0.186,-0.1866,-0.1873,-0.188,-0.1885,-0.1888,-0.189,-0.1887,-0.189,-0.1898,-0.1899,-0.1901,-0.1901,-0.1887,-0.1887,-0.1882,-0.1882,-0.1882]}]]